Time,TemperatureF,DewpointF,PressureIn,WindDirection,WindDirectionDegrees,WindSpeedMPH,WindSpeedGustMPH,Humidity,HourlyPrecipIn,Conditions,Clouds,dailyrainin,SoftwareType,DateUTC
2013-02-08 00:02:00,31.0,21.0,30.15,West,270,0.0,0.0,67,0.00,,,0.00,,2013-02-08 05:02:00,
2013-02-08 00:12:00,31.0,21.0,30.15,West,270,0.0,0.0,67,0.00,,,0.00,,2013-02-08 05:12:00,
2013-02-08 00:22:00,31.0,21.0,30.15,West,270,0.0,0.0,66,0.00,,,0.00,,2013-02-08 05:22:00,
2013-02-08 00:32:00,31.0,21.0,30.14,West,270,0.0,0.0,66,0.00,,,0.00,,2013-02-08 05:32:00,
2013-02-08 00:42:00,31.0,21.0,30.14,West,270,0.0,0.0,66,0.00,,,0.00,,2013-02-08 05:42:00,
2013-02-08 00:52:00,31.0,21.0,30.14,West,270,0.0,0.0,67,0.00,,,0.00,,2013-02-08 05:52:00,
2013-02-08 01:01:00,31.0,21.0,30.14,West,270,0.0,0.0,67,0.00,,,0.00,,2013-02-08 06:01:00,
2013-02-08 01:11:00,31.0,21.0,30.14,West,270,0.0,0.0,67,0.00,,,0.00,,2013-02-08 06:11:00,
2013-02-08 01:21:00,31.0,21.0,30.13,West,270,0.0,0.0,67,0.00,,,0.00,,2013-02-08 06:21:00,
2013-02-08 01:32:00,31.0,21.0,30.13,West,270,0.0,0.0,67,0.00,,,0.00,,2013-02-08 06:32:00,
2013-02-08 01:42:00,31.0,21.0,30.13,West,270,0.0,0.0,67,0.00,,,0.00,,2013-02-08 06:42:00,
2013-02-08 01:52:00,31.0,21.0,30.13,West,270,0.0,0.0,67,0.00,,,0.00,,2013-02-08 06:52:00,
2013-02-08 02:01:00,31.0,21.0,30.13,West,270,0.0,0.0,67,0.00,,,0.00,,2013-02-08 07:01:00,
2013-02-08 02:32:00,31.0,23.0,30.08,West,270,0.0,0.0,72,0.00,,,0.00,,2013-02-08 07:32:00,
2013-02-08 02:42:00,31.0,23.0,30.07,West,270,0.0,0.0,73,0.00,,,0.00,,2013-02-08 07:42:00,
2013-02-08 02:52:00,31.0,23.0,30.07,West,270,0.0,0.0,73,0.00,,,0.00,,2013-02-08 07:52:00,
2013-02-08 03:01:00,32.0,25.0,30.07,West,270,0.0,0.0,74,0.00,,,0.00,,2013-02-08 08:01:00,
2013-02-08 03:11:00,32.0,25.0,30.06,West,270,0.0,0.0,74,0.00,,,0.00,,2013-02-08 08:11:00,
2013-02-08 03:21:00,32.0,25.0,30.06,West,270,0.0,0.0,74,0.00,,,0.00,,2013-02-08 08:21:00,
2013-02-08 03:32:00,32.0,25.0,30.04,West,270,0.0,0.0,75,0.00,,,0.00,,2013-02-08 08:32:00,
2013-02-08 03:42:00,32.0,25.0,30.04,West,270,0.0,0.0,75,0.00,,,0.00,,2013-02-08 08:42:00,
2013-02-08 03:52:00,32.0,25.0,30.04,West,270,0.0,0.0,76,0.00,,,0.00,,2013-02-08 08:52:00,
2013-02-08 04:03:00,32.0,25.0,30.04,West,270,0.0,0.0,76,0.00,,,0.00,,2013-02-08 09:03:00,
2013-02-08 04:11:00,32.0,25.0,30.04,West,270,0.0,0.0,76,0.00,,,0.00,,2013-02-08 09:11:00,
2013-02-08 04:21:00,33.0,26.0,30.02,West,270,0.0,0.0,76,0.00,,,0.00,,2013-02-08 09:21:00,
2013-02-08 04:32:00,33.0,26.0,30.02,West,270,0.0,0.0,76,0.00,,,0.00,,2013-02-08 09:32:00,
2013-02-08 04:42:00,33.0,26.0,30.02,West,270,0.0,0.0,76,0.00,,,0.00,,2013-02-08 09:42:00,
2013-02-08 04:52:00,33.0,27.0,30.01,West,270,0.0,0.0,78,0.00,,,0.00,,2013-02-08 09:52:00,
2013-02-08 05:01:00,33.0,27.0,30.01,West,270,0.0,0.0,78,0.00,,,0.00,,2013-02-08 10:01:00,
2013-02-08 05:12:00,33.0,27.0,30.01,West,270,0.0,0.0,78,0.00,,,0.00,,2013-02-08 10:12:00,
2013-02-08 05:22:00,33.0,27.0,30.01,West,270,0.0,0.0,78,0.00,,,0.00,,2013-02-08 10:22:00,
2013-02-08 05:32:00,33.0,27.0,30.01,West,270,0.0,0.0,78,0.00,,,0.00,,2013-02-08 10:32:00,
2013-02-08 05:42:00,33.0,27.0,30.01,West,270,0.0,0.0,78,0.00,,,0.00,,2013-02-08 10:42:00,
2013-02-08 06:02:00,34.0,28.0,29.98,West,270,0.0,0.0,80,0.00,,,0.00,,2013-02-08 11:02:00,
2013-02-08 06:11:00,34.0,28.0,29.98,West,270,0.0,0.0,80,0.00,,,0.00,,2013-02-08 11:11:00,
2013-02-08 06:22:00,34.0,29.0,29.97,West,270,0.0,0.0,81,0.00,,,0.00,,2013-02-08 11:22:00,
2013-02-08 06:32:00,34.0,29.0,29.97,West,270,0.0,0.0,81,0.00,,,0.00,,2013-02-08 11:32:00,
2013-02-08 06:42:00,34.0,29.0,29.97,West,270,0.0,0.0,81,0.00,,,0.00,,2013-02-08 11:42:00,
2013-02-08 06:52:00,34.0,29.0,29.97,West,270,0.0,0.0,81,0.00,,,0.00,,2013-02-08 11:52:00,
2013-02-08 07:02:00,34.0,29.0,29.97,West,270,0.0,0.0,81,0.00,,,0.00,,2013-02-08 12:02:00,
2013-02-08 07:33:00,34.0,30.0,29.95,West,270,0.0,0.0,84,0.00,,,0.00,,2013-02-08 12:33:00,
2013-02-08 07:42:00,34.0,30.0,29.95,West,270,0.0,0.0,84,0.00,,,0.00,,2013-02-08 12:42:00,
2013-02-08 07:52:00,35.0,31.0,29.94,West,270,0.0,0.0,84,0.00,,,0.00,,2013-02-08 12:52:00,
2013-02-08 08:02:00,35.0,30.0,29.94,West,270,0.0,0.0,83,0.00,,,0.00,,2013-02-08 13:02:00,
2013-02-08 08:12:00,35.0,30.0,29.94,West,270,0.0,0.0,83,0.00,,,0.00,,2013-02-08 13:12:00,
2013-02-08 08:22:00,35.0,30.0,29.94,West,270,0.0,0.0,83,0.00,,,0.00,,2013-02-08 13:22:00,
2013-02-08 08:32:00,35.0,30.0,29.94,West,270,0.0,0.0,83,0.00,,,0.00,,2013-02-08 13:32:00,
2013-02-08 08:42:00,35.0,30.0,29.94,West,270,0.0,0.0,83,0.00,,,0.00,,2013-02-08 13:42:00,
2013-02-08 08:52:00,35.0,31.0,29.93,West,270,0.0,0.0,84,0.00,,,0.00,,2013-02-08 13:52:00,
2013-02-08 09:02:00,35.0,31.0,29.93,West,270,0.0,0.0,84,0.00,,,0.00,,2013-02-08 14:02:00,
2013-02-08 09:11:00,35.0,31.0,29.93,West,270,0.0,0.0,84,0.00,,,0.00,,2013-02-08 14:11:00,
2013-02-08 09:22:00,35.0,31.0,29.92,West,270,0.0,0.0,84,0.00,,,0.00,,2013-02-08 14:22:00,
2013-02-08 09:32:00,35.0,31.0,29.92,West,270,0.0,0.0,84,0.00,,,0.00,,2013-02-08 14:32:00,
2013-02-08 09:42:00,35.0,31.0,29.92,West,270,0.0,0.0,84,0.00,,,0.00,,2013-02-08 14:42:00,
2013-02-08 09:52:00,35.0,31.0,29.91,West,270,0.0,0.0,84,0.00,,,0.00,,2013-02-08 14:52:00,
2013-02-08 10:02:00,35.0,31.0,29.91,West,270,0.0,0.0,84,0.00,,,0.00,,2013-02-08 15:02:00,
2013-02-08 10:12:00,35.0,31.0,29.91,West,270,0.0,0.0,84,0.00,,,0.00,,2013-02-08 15:12:00,
2013-02-08 10:22:00,35.0,31.0,29.89,West,270,0.0,0.0,84,0.00,,,0.00,,2013-02-08 15:22:00,
2013-02-08 10:32:00,35.0,31.0,29.89,West,270,0.0,0.0,84,0.00,,,0.00,,2013-02-08 15:32:00,
2013-02-08 10:42:00,35.0,31.0,29.89,West,270,0.0,0.0,84,0.00,,,0.00,,2013-02-08 15:42:00,
2013-02-08 10:52:00,35.0,31.0,29.87,West,270,0.0,0.0,84,0.00,,,0.00,,2013-02-08 15:52:00,
2013-02-08 11:01:00,36.0,32.0,29.87,West,270,0.0,0.0,84,0.00,,,0.00,,2013-02-08 16:01:00,
2013-02-08 11:11:00,36.0,32.0,29.87,West,270,0.0,0.0,84,0.00,,,0.00,,2013-02-08 16:11:00,
2013-02-08 11:22:00,36.0,32.0,29.87,West,270,0.0,0.0,84,0.00,,,0.00,,2013-02-08 16:22:00,
2013-02-08 11:32:00,36.0,32.0,29.87,West,270,0.0,0.0,84,0.00,,,0.00,,2013-02-08 16:32:00,
2013-02-08 11:42:00,36.0,32.0,29.87,West,270,0.0,0.0,84,0.00,,,0.00,,2013-02-08 16:42:00,
2013-02-08 11:52:00,36.0,31.0,29.83,West,270,0.0,0.0,83,0.00,,,0.00,,2013-02-08 16:52:00,
2013-02-08 12:04:00,36.0,31.0,29.83,West,270,0.0,0.0,83,0.00,,,0.00,,2013-02-08 17:04:00,
2013-02-08 12:12:00,36.0,31.0,29.83,West,270,0.0,0.0,83,0.00,,,0.00,,2013-02-08 17:12:00,
2013-02-08 12:23:00,37.0,32.0,29.81,West,270,0.0,0.0,82,0.00,,,0.00,,2013-02-08 17:23:00,
2013-02-08 12:32:00,37.0,32.0,29.80,West,270,0.0,0.0,82,0.00,,,0.00,,2013-02-08 17:32:00,
2013-02-08 12:42:00,37.0,32.0,29.80,West,270,0.0,0.0,82,0.00,,,0.00,,2013-02-08 17:42:00,
2013-02-08 12:53:00,38.0,33.0,29.79,West,270,0.0,0.0,81,0.00,,,0.00,,2013-02-08 17:53:00,
2013-02-08 13:02:00,37.0,31.0,29.79,West,270,0.0,0.0,80,0.00,,,0.00,,2013-02-08 18:02:00,
2013-02-08 13:12:00,37.0,31.0,29.79,West,270,0.0,0.0,80,0.00,,,0.00,,2013-02-08 18:12:00,
2013-02-08 13:24:00,38.0,32.0,29.78,West,270,0.0,0.0,80,0.00,,,0.00,,2013-02-08 18:24:00,
2013-02-08 13:35:00,38.0,32.0,29.77,West,270,0.0,0.0,80,0.00,,,0.00,,2013-02-08 18:35:00,
2013-02-08 13:43:00,38.0,32.0,29.77,West,270,0.0,0.0,80,0.00,,,0.00,,2013-02-08 18:43:00,
2013-02-08 13:53:00,38.0,32.0,29.75,West,270,0.0,0.0,79,0.00,,,0.00,,2013-02-08 18:53:00,
2013-02-08 14:02:00,38.0,32.0,29.75,West,270,0.0,0.0,79,0.00,,,0.00,,2013-02-08 19:02:00,
2013-02-08 14:11:00,38.0,32.0,29.75,West,270,0.0,0.0,79,0.00,,,0.00,,2013-02-08 19:11:00,
2013-02-08 14:22:00,38.0,32.0,29.74,West,270,0.0,0.0,79,0.00,,,0.00,,2013-02-08 19:22:00,
2013-02-08 14:32:00,39.0,33.0,29.72,West,270,0.0,0.0,79,0.00,,,0.00,,2013-02-08 19:32:00,
2013-02-08 14:42:00,39.0,33.0,29.72,West,270,0.0,0.0,79,0.00,,,0.00,,2013-02-08 19:42:00,
2013-02-08 14:52:00,39.0,33.0,29.70,West,270,0.0,0.0,78,0.00,,,0.00,,2013-02-08 19:52:00,
2013-02-08 15:02:00,39.0,33.0,29.70,West,270,0.0,0.0,78,0.00,,,0.00,,2013-02-08 20:02:00,
2013-02-08 15:12:00,39.0,33.0,29.70,West,270,0.0,0.0,78,0.00,,,0.00,,2013-02-08 20:12:00,
2013-02-08 15:22:00,39.0,33.0,29.70,West,270,0.0,0.0,78,0.00,,,0.00,,2013-02-08 20:22:00,
2013-02-08 15:32:00,38.0,32.0,29.70,West,270,0.0,0.0,79,0.00,,,0.00,,2013-02-08 20:32:00,
2013-02-08 15:42:00,38.0,32.0,29.70,West,270,0.0,0.0,79,0.00,,,0.00,,2013-02-08 20:42:00,
2013-02-08 15:52:00,38.0,32.0,29.70,West,270,0.0,0.0,79,0.00,,,0.00,,2013-02-08 20:52:00,
2013-02-08 16:02:00,38.0,32.0,29.70,West,270,0.0,0.0,79,0.00,,,0.00,,2013-02-08 21:02:00,
2013-02-08 16:11:00,38.0,32.0,29.70,West,270,0.0,0.0,79,0.00,,,0.00,,2013-02-08 21:11:00,
2013-02-08 16:22:00,36.0,32.0,29.71,West,270,0.0,0.0,84,0.00,,,0.00,,2013-02-08 21:22:00,
2013-02-08 16:33:00,36.0,32.0,29.71,West,270,0.0,0.0,85,0.00,,,0.00,,2013-02-08 21:33:00,
2013-02-08 16:42:00,36.0,32.0,29.71,West,270,0.0,0.0,85,0.00,,,0.00,,2013-02-08 21:42:00,
2013-02-08 16:52:00,35.0,31.0,29.72,West,270,0.0,0.0,86,0.00,,,0.00,,2013-02-08 21:52:00,
2013-02-08 17:02:00,35.0,32.0,29.72,West,270,0.0,0.0,87,0.00,,,0.00,,2013-02-08 22:02:00,
2013-02-08 17:11:00,35.0,32.0,29.72,West,270,0.0,0.0,87,0.00,,,0.00,,2013-02-08 22:11:00,
2013-02-08 17:22:00,35.0,32.0,29.72,West,270,0.0,0.0,87,0.00,,,0.00,,2013-02-08 22:22:00,
2013-02-08 17:32:00,35.0,32.0,29.72,West,270,0.0,0.0,87,0.00,,,0.00,,2013-02-08 22:32:00,
2013-02-08 17:42:00,35.0,32.0,29.72,West,270,0.0,0.0,87,0.00,,,0.00,,2013-02-08 22:42:00,
2013-02-08 17:52:00,35.0,31.0,29.73,WSW,248,0.0,0.0,86,0.00,,,0.00,,2013-02-08 22:52:00,
2013-02-08 18:02:00,35.0,32.0,29.73,WSW,248,0.0,0.0,87,0.00,,,0.00,,2013-02-08 23:02:00,
2013-02-08 18:11:00,35.0,32.0,29.73,WSW,248,0.0,0.0,87,0.00,,,0.00,,2013-02-08 23:11:00,
2013-02-08 18:22:00,35.0,32.0,29.73,WSW,248,0.0,0.0,87,0.00,,,0.00,,2013-02-08 23:22:00,
2013-02-08 18:32:00,35.0,32.0,29.73,WSW,248,0.0,0.0,87,0.00,,,0.00,,2013-02-08 23:32:00,
2013-02-08 18:42:00,35.0,32.0,29.73,WSW,248,0.0,0.0,87,0.00,,,0.00,,2013-02-08 23:42:00,
2013-02-08 18:52:00,34.0,31.0,29.72,WSW,248,0.0,0.0,87,0.00,,,0.00,,2013-02-08 23:52:00,
2013-02-08 19:02:00,35.0,32.0,29.72,WSW,248,0.0,0.0,87,0.00,,,0.00,,2013-02-09 00:02:00,
2013-02-08 19:12:00,35.0,32.0,29.72,WSW,248,0.0,0.0,87,0.00,,,0.00,,2013-02-09 00:12:00,
2013-02-08 19:22:00,34.0,31.0,29.72,WSW,248,0.0,0.0,88,0.00,,,0.00,,2013-02-09 00:22:00,
2013-02-08 19:32:00,34.0,31.0,29.72,WSW,248,0.0,0.0,88,0.00,,,0.00,,2013-02-09 00:32:00,
2013-02-08 19:42:00,34.0,31.0,29.72,WSW,248,0.0,0.0,88,0.00,,,0.00,,2013-02-09 00:42:00,
2013-02-08 19:52:00,34.0,31.0,29.72,WSW,248,0.0,0.0,88,0.00,,,0.00,,2013-02-09 00:52:00,
2013-02-08 20:02:00,34.0,31.0,29.72,WSW,248,0.0,0.0,88,0.00,,,0.00,,2013-02-09 01:02:00,
2013-02-08 20:11:00,34.0,31.0,29.72,WSW,248,0.0,0.0,88,0.00,,,0.00,,2013-02-09 01:11:00,
2013-02-08 20:22:00,34.0,31.0,29.72,WSW,248,0.0,0.0,88,0.00,,,0.00,,2013-02-09 01:22:00,
2013-02-08 20:32:00,34.0,31.0,29.72,WSW,248,0.0,0.0,88,0.00,,,0.00,,2013-02-09 01:32:00,
2013-02-08 20:52:00,34.0,31.0,29.72,WSW,248,0.0,0.0,89,0.00,,,0.00,,2013-02-09 01:52:00,
2013-02-08 21:02:00,34.0,31.0,29.72,WSW,248,0.0,0.0,89,0.00,,,0.00,,2013-02-09 02:02:00,
2013-02-08 21:11:00,34.0,31.0,29.73,WSW,248,0.0,0.0,89,0.00,,,0.00,,2013-02-09 02:11:00,
2013-02-08 21:21:00,34.0,31.0,29.73,WSW,248,0.0,0.0,89,0.00,,,0.00,,2013-02-09 02:21:00,
2013-02-08 21:32:00,34.0,31.0,29.78,WSW,248,0.0,0.0,89,0.00,,,0.00,,2013-02-09 02:32:00,
2013-02-08 21:42:00,34.0,31.0,29.78,WSW,248,0.0,0.0,89,0.00,,,0.00,,2013-02-09 02:42:00,
2013-02-08 21:53:00,34.0,31.0,29.78,WSW,248,0.0,0.0,89,0.00,,,0.00,,2013-02-09 02:53:00,
2013-02-08 22:02:00,34.0,31.0,29.75,WSW,248,0.0,0.0,89,0.00,,,0.00,,2013-02-09 03:02:00,
2013-02-08 22:11:00,34.0,31.0,29.75,WSW,248,0.0,0.0,89,0.00,,,0.00,,2013-02-09 03:11:00,
2013-02-08 22:22:00,34.0,31.0,29.75,WSW,248,0.0,0.0,89,0.00,,,0.00,,2013-02-09 03:22:00,
2013-02-08 22:32:00,33.0,30.0,29.75,WSW,248,1.0,5.0,88,0.00,,,0.00,,2013-02-09 03:32:00,
2013-02-08 22:42:00,33.0,30.0,29.75,WSW,248,1.0,5.0,88,0.00,,,0.00,,2013-02-09 03:42:00,
2013-02-08 22:53:00,33.0,29.0,29.76,WSW,248,1.0,7.0,86,0.00,,,0.00,,2013-02-09 03:53:00,
2013-02-08 23:03:00,32.0,28.0,29.76,WSW,248,1.0,3.0,85,0.00,,,0.00,,2013-02-09 04:03:00,
2013-02-08 23:12:00,32.0,28.0,29.76,WSW,248,1.0,3.0,85,0.00,,,0.00,,2013-02-09 04:12:00,
2013-02-08 23:23:00,32.0,28.0,29.76,WSW,248,1.0,3.0,85,0.00,,,0.00,,2013-02-09 04:23:00,
2013-02-08 23:32:00,32.0,28.0,29.76,WSW,248,1.0,3.0,85,0.00,,,0.00,,2013-02-09 04:32:00,
2013-02-08 23:42:00,32.0,28.0,29.76,WSW,248,1.0,3.0,85,0.00,,,0.00,,2013-02-09 04:42:00,
2013-02-08 23:52:00,30.0,25.0,29.81,WSW,248,1.0,3.0,83,0.00,,,0.00,,2013-02-09 04:52:00,